[[{"header":{"parameterUnit":"m.s-1","parameterCategory":2,"la1":30.2991,"la2":30.254,"lo1":-89.0895,"lo2":-89.0444,"dy":0.0017,"dx":0.0017,"nx":28,"ny":28,"refTime":"2024-05-11T21:00:00:Z","depth":"0","parameterNumber":2,"parameterNumberName":"U-component_of_CURRENTS"},"data":[0,0,0,0,0,0,0,0,0,0,0,0,0,0,0,0,0,0,0,0,0,0,0,0,0,0,0,0,0,0,0,0,0,0,0,0,0,0,0,0,0,0,0,0,0,0,0,0,0,0,0,0,0,0,0,0,0,0,0.0135,0.0135,0,0.0115,0.0115,0.0114,0.0133,0.0134,0.0135,0.0136,0.0155,0.0155,0.0155,0,0,0,0,0,0,0,0,0,0,0,0,0,0.018,0.0179,0.0135,0.0135,0.0134,0.0115,0.0115,0.0114,0.0133,0.0134,0.0135,0.0136,0.0155,0.0155,0.0155,0,0,0,0,0,0,0,0,0,0,0,0,0,0.016,0.0179,0.0135,0.0141,0.0142,0.0115,0.0115,0.0114,0.0133,0.0134,0.0135,0.0136,0.0155,0.0155,0.0155,0.0131,0,0,0.0154,0.0154,0,0,0,0,0,0,0,0,0.0162,0.0159,0.0141,0.0141,0.0141,0.0128,0.0138,0.0122,0.0133,0.0137,0.0136,0.0137,0.0148,0.0149,0.0142,0.0132,0.0132,0.0154,0.0154,0.0153,0.0153,0,0,0,0,0,0,0,0.0163,0.016,0.0127,0.014,0.0141,0.0142,0.014,0.0134,0.0137,0.0136,0.0138,0.0135,0.0149,0.0142,0.0143,0.0133,0.0154,0.0153,0.0153,0.0153,0.0132,0.0132,0,0,0,0,0,0,0.0164,0.0161,0.0128,0.0127,0.0154,0.014,0.0139,0.0131,0.0137,0.0138,0.0134,0.0136,0.0142,0.0143,0.0144,0.0146,0.0153,0.0153,0.0153,0.0133,0.0132,0.0132,0,0,0,0,0,0,0.0165,0.0161,0.0129,0.0144,0.014,0.0138,0.013,0.013,0.0131,0.0134,0.0137,0.0136,0.0143,0.0144,0.0143,0.0146,0.0153,0.0153,0.0133,0.0133,0.0132,0.0132,0,0,0,0,0,0,0.0166,0.0161,0.0159,0.0143,0.0139,0.0118,0.0128,0.0129,0.0127,0.013,0.0136,0.0139,0.0144,0.0143,0.0143,0.0146,0.0153,0.0134,0.0133,0.0132,0.0132,0.0131,0.013,0,0,0,0,0,0.0168,0.0157,0.0159,0.0155,0.0134,0.0118,0.0116,0.0119,0.0126,0.0125,0.0129,0.0139,0.0138,0.0142,0.0142,0.0145,0.0134,0.0133,0.0132,0.0133,0.0131,0.013,0,0,0,0,0,0,0.0175,0.0157,0.0159,0.0144,0.0136,0.0121,0.0119,0.0119,0.0118,0.0124,0.013,0.0132,0.0134,0.0134,0.0138,0.0136,0.0139,0.0138,0.014,0.0138,0.0137,0.0161,0.0152,0,0,0,0,0,0.0174,0.0163,0.0149,0.0139,0.0134,0.0127,0.0122,0.0122,0.0118,0.0119,0.0122,0.0125,0.0126,0.0129,0.0128,0.0122,0.0156,0.0124,0.0123,0.0123,0.0141,0.0179,0.0184,0.0129,0.0129,0.0129,0,0,0.0173,0.0163,0.0157,0.014,0.0134,0.0126,0.0127,0.0118,0.0118,0.012,0.0122,0.0121,0.0123,0.0121,0.0122,0.0125,0.0157,0.0122,0.0121,0.014,0.0179,0.0185,0.019,0.0128,0.0128,0.0129,0,0,0.0167,0.0158,0.0149,0.0142,0.0133,0.0127,0.0125,0.0113,0.0117,0.0109,0.0116,0.0121,0.0111,0.0122,0.0124,0.0116,0.015,0.0107,0.0125,0.0161,0.0167,0.0172,0.0233,0.0244,0.0109,0.0109,0.0109,0,0.0171,0.0156,0.0145,0.0137,0.0135,0.0128,0.0123,0.0119,0.011,0.0117,0.0113,0.0117,0.0118,0.0131,0.0129,0.0118,0.015,0.013,0.0163,0.0168,0.0174,0.0235,0.0247,0.0108,0.0108,0.0108,0.0108,0,0.0158,0.0151,0.0145,0.0136,0.013,0.0123,0.0118,0.0117,0.0118,0.0119,0.0129,0.0128,0.014,0.0131,0.0128,0.016,0.0175,0.0157,0.0171,0.018,0.0243,0.0256,0.0108,0.0108,0.0108,0.0108,0,0,0.0161,0.0141,0.0142,0.0143,0.0131,0.0127,0.0126,0.0129,0.0144,0.0135,0.016,0.0153,0.0163,0.0167,0.0164,0.0191,0.0256,0.0191,0.0193,0.0263,0.036,0.0498,0.0526,0.0241,0.0243,0.0244,0.0394,0,0.0161,0.015,0.0138,0.0138,0.0136,0.0132,0.0136,0.014,0.0146,0.0167,0.0175,0.0193,0.0173,0.0185,0.0208,0.0244,0.0287,0.0219,0.0333,0.0337,0.0467,0.0544,0.064,0.0793,0.0406,0.0408,0.041,0,0.0156,0.0153,0.015,0.0151,0.0151,0.0152,0.0171,0.0172,0.0195,0.0203,0.0223,0.0232,0.0275,0.0251,0.0339,0.0295,0.0336,0.0362,0.0368,0.0511,0.0499,0.0718,0.0831,0.0797,0.043,0.0428,0.0427,0,0.0173,0.0163,0.0165,0.0164,0.0162,0.0171,0.0174,0.019,0.0208,0.0239,0.0274,0.0299,0.0355,0.0379,0.045,0.0393,0.0566,0.049,0.0657,0.0667,0.0784,0.0802,0.0892,0.0567,0.0567,0.0566,0.0566,0,0.018,0.0184,0.0178,0.0184,0.0201,0.0192,0.0219,0.0226,0.0255,0.0318,0.0305,0.0392,0.0392,0.0487,0.0498,0.0663,0.0615,0.0705,0.073,0.0788,0.0804,0.0806,0.0744,0.0572,0.0571,0.057,0.0569,0,0.02,0.0191,0.02,0.0205,0.0211,0.0226,0.0248,0.0276,0.03,0.0388,0.0409,0.0492,0.065,0.0679,0.0774,0.0784,0.087,0.0938,0.1029,0.1064,0.1167,0.1102,0.1082,0.1055,0.1136,0.114,0.1144,0,0.0207,0.0213,0.0224,0.0243,0.0249,0.0269,0.0294,0.03,0.0345,0.0485,0.0551,0.072,0.089,0.109,0.1157,0.1255,0.11,0.1361,0.1267,0.1242,0.1184,0.0959,0.0918,0.1414,0.1419,0.1424,0.1428,0,0.0231,0.0236,0.0248,0.0286,0.0314,0.0343,0.0386,0.0425,0.0487,0.0588,0.0795,0.0946,0.1209,0.1406,0.154,0.1575,0.1305,0.1464,0.1403,0.1414,0.1207,0.1172,0.1242,0.147,0.1465,0.1462,0.146,0.1458,0.0257,0.0274,0.0299,0.0339,0.0374,0.044,0.0488,0.0565,0.0676,0.0874,0.0989,0.1252,0.1527,0.177,0.1776,0.1855,0.1654,0.1804,0.1731,0.1505,0.1472,0.1669,0.1939,0.1938,0.1936,0.1935,0.1934,0,0.0295,0.0321,0.0356,0.0413,0.0474,0.0481,0.0572,0.0645,0.0819,0.1041,0.1245,0.1609,0.1848,0.1979,0.215,0.2105,0.1884,0.2032,0.1717,0.1666,0.1862,0.1873,0.2183,0.2183,0.2183,0.2183,0.2183,0.2183,0.032,0.0366,0.0388,0.0501,0.0551,0.0646,0.0712,0.0834,0.0988,0.1306,0.1544,0.1714,0.1957,0.2171,0.2219,0.2168,0.1903,0.1867,0.1719,0.1865,0.1835,0.1805,0.1801,0.2091,0.2091,0.1479,0.1475,0.1472]},{"header":{"parameterUnit":"m.s-1","parameterCategory":2,"la1":30.2991,"la2":30.254,"lo1":-89.0895,"lo2":-89.0444,"dy":0.0017,"dx":0.0017,"nx":28,"ny":28,"refTime":"2024-05-11T21:00:00:Z","depth":"0","parameterNumber":3,"parameterNumberName":"V-component_of_CURRENTS"},"data":[0,0,0,0,0,0,0,0,0,0,0,0,0,0,0,0,0,0,0,0,0,0,0,0,0,0,0,0,0,0,0,0,0,0,0,0,0,0,0,0,0,0,0,0,0,0,0,0,0,0,0,0,0,0,0,0,0,0,0.0024,0.0024,0,0.0027,0.0027,0.0027,0.0032,0.0032,0.0032,0.0032,0.0051,0.0051,0.0051,0,0,0,0,0,0,0,0,0,0,0,0,0,0.004,0.0039,0.0024,0.0024,0.0024,0.0027,0.0027,0.0027,0.0032,0.0032,0.0032,0.0032,0.0051,0.0051,0.0051,0,0,0,0,0,0,0,0,0,0,0,0,0,0.0037,0.0039,0.0024,0.0027,0.0027,0.0027,0.0027,0.0027,0.0032,0.0032,0.0032,0.0032,0.005,0.0051,0.0052,0.0052,0,0,0.0053,0.0054,0,0,0,0,0,0,0,0,0.0037,0.0036,0.0027,0.0027,0.0027,0.003,0.004,0.0037,0.0032,0.003,0.0032,0.0032,0.0045,0.0046,0.0046,0.0053,0.0054,0.0053,0.0054,0.0054,0.0054,0,0,0,0,0,0,0,0.0037,0.0036,0.0025,0.0027,0.0027,0.0034,0.0034,0.0039,0.0037,0.003,0.003,0.0031,0.0045,0.0045,0.0046,0.0054,0.0053,0.0054,0.0054,0.0055,0.0076,0.0076,0,0,0,0,0,0,0.0036,0.0036,0.0025,0.0025,0.0033,0.0034,0.0033,0.0028,0.0036,0.0038,0.0031,0.0031,0.0044,0.0046,0.0047,0.0053,0.0054,0.0055,0.0055,0.0076,0.0076,0.0076,0,0,0,0,0,0,0.0036,0.0034,0.0025,0.0031,0.0031,0.0033,0.0028,0.0028,0.0028,0.0037,0.0039,0.003,0.0044,0.0046,0.0054,0.0054,0.0055,0.0055,0.0075,0.0076,0.0076,0.0063,0,0,0,0,0,0,0.0036,0.0034,0.003,0.0031,0.003,0.0024,0.0028,0.0028,0.0029,0.0029,0.0037,0.0039,0.0045,0.0053,0.0054,0.0055,0.0056,0.0075,0.0076,0.0076,0.0063,0.0063,0.0063,0,0,0,0,0,0.0037,0.003,0.0029,0.0028,0.0024,0.0024,0.0024,0.0027,0.0029,0.0027,0.0035,0.0039,0.0057,0.0053,0.0055,0.0056,0.0075,0.0075,0.0076,0.0063,0.0063,0.0063,0,0,0,0,0,0,0.0034,0.003,0.0029,0.0021,0.0022,0.0025,0.0023,0.0026,0.003,0.0031,0.004,0.0042,0.0047,0.0055,0.0052,0.0064,0.0067,0.0068,0.0057,0.0057,0.0056,0.0054,0.0056,0,0,0,0,0,0.0031,0.0024,0.0024,0.0018,0.0018,0.002,0.002,0.0022,0.0026,0.0028,0.0034,0.0043,0.005,0.0056,0.0061,0.0069,0.008,0.0072,0.0072,0.0071,0.0071,0.0091,0.0092,0.0078,0.0078,0.0078,0,0,0.0029,0.0025,0.0021,0.0017,0.0017,0.0017,0.0021,0.0019,0.002,0.003,0.0033,0.0039,0.0051,0.0057,0.0061,0.0065,0.0081,0.0072,0.0071,0.0072,0.0091,0.0093,0.0094,0.0078,0.0078,0.0078,0,0,0.0023,0.0017,0.0012,0.0011,0.0011,0.0013,0.0012,0.0014,0.0016,0.0019,0.0027,0.0034,0.0044,0.0053,0.006,0.0062,0.0076,0.0066,0.0066,0.0085,0.0086,0.0087,0.0102,0.0105,0.007,0.007,0.007,0,0.0022,0.0013,0.0011,0.0008,0.0008,0.0011,0.0009,0.0011,0.0015,0.0019,0.0018,0.0035,0.0041,0.0056,0.0056,0.0061,0.0075,0.0065,0.0084,0.0085,0.0087,0.0102,0.0105,0.0069,0.007,0.007,0.007,0,0.0013,0.0008,0.0005,0.0001,0.0001,-0.0001,0.0003,0.0004,0.0006,0.001,0.0019,0.0028,0.0041,0.0043,0.005,0.0066,0.0073,0.0077,0.0083,0.0087,0.0103,0.0107,0.0069,0.0069,0.0069,0.0069,0,0,0.0008,0.0,-0.0001,-0.0003,-0.0003,-0.0004,-0.0001,0.0003,0.0009,0.0011,0.0022,0.0028,0.0035,0.0044,0.0054,0.0068,0.0086,0.0078,0.0079,0.009,0.0129,0.0137,0.0142,0.0097,0.0098,0.0098,0.0135,0,0.0003,-0.0007,-0.0008,-0.0012,-0.0015,-0.0011,-0.0007,-0.0001,0.0006,0.0017,0.0028,0.0041,0.0036,0.0047,0.0058,0.0084,0.0096,0.0076,0.0126,0.0128,0.0132,0.0146,0.0168,0.0204,0.0139,0.0139,0.014,0,-0.0004,-0.0009,-0.0019,-0.0018,-0.0019,-0.002,-0.0012,-0.0008,0.001,0.0019,0.0032,0.0047,0.0069,0.0064,0.0102,0.0092,0.0107,0.0121,0.0123,0.0138,0.0142,0.019,0.0213,0.0147,0.0145,0.0145,0.0144,0,-0.0009,-0.0015,-0.0025,-0.0026,-0.0025,-0.0026,-0.0023,-0.0009,0.0006,0.0024,0.0051,0.0063,0.0097,0.0104,0.0134,0.0123,0.0179,0.0168,0.0185,0.0186,0.0218,0.0221,0.0181,0.0189,0.0189,0.0188,0.0188,0,-0.0015,-0.002,-0.003,-0.0033,-0.0038,-0.0033,-0.003,-0.0021,0.0008,0.0063,0.0055,0.0118,0.0112,0.015,0.0147,0.0185,0.0191,0.0189,0.0198,0.0214,0.0216,0.017,0.0124,0.019,0.019,0.0189,0.0189,0,-0.0018,-0.0027,-0.0036,-0.004,-0.0042,-0.0045,-0.003,-0.0015,0.0014,0.009,0.0108,0.0168,0.023,0.0215,0.0248,0.0226,0.0226,0.0248,0.0263,0.0273,0.0212,0.0165,0.0161,0.0185,0.0267,0.0268,0.0268,0,-0.0021,-0.0029,-0.0042,-0.0044,-0.0047,-0.005,-0.0041,-0.0021,0.0026,0.0155,0.0215,0.0284,0.0391,0.0406,0.0349,0.0326,0.0278,0.0315,0.0288,0.0213,0.0169,0.0144,0.0164,0.0327,0.0328,0.0329,0.0329,0,-0.0022,-0.0032,-0.0038,-0.0039,-0.0039,-0.0028,0.0007,0.0059,0.0142,0.0253,0.0445,0.0543,0.0549,0.0565,0.0475,0.0436,0.0282,0.0328,0.0255,0.0214,0.0183,0.021,0.0288,0.0336,0.0335,0.0334,0.0334,0.0334,-0.0022,-0.0027,-0.003,-0.0026,-0.0017,0.0042,0.0107,0.0203,0.0344,0.0602,0.0648,0.0882,0.0792,0.0688,0.0553,0.0336,0.0349,0.0299,0.025,0.0234,0.0246,0.0332,0.0384,0.0384,0.0383,0.0383,0.0383,0,-0.0013,-0.0011,-0.001,0.0018,0.0063,0.0059,0.018,0.0313,0.056,0.0802,0.1017,0.1198,0.103,0.082,0.05,0.0311,0.0249,0.0208,0.0169,0.0198,0.0279,0.0269,0.0294,0.0294,0.0294,0.0295,0.0295,0.0295,-0.0009,0.0001,0.0008,0.0095,0.0135,0.0259,0.0362,0.0588,0.0808,0.1228,0.1482,0.1633,0.1555,0.0796,0.0346,0.0221,0.0117,0.0057,0.0041,0.0055,0.0059,0.0063,0.0042,0.0019,0.0019,0.001,0.001,0.0009]}],[{"header":{"parameterUnit":"m.s-1","parameterCategory":2,"la1":30.2991,"la2":30.254,"lo1":-89.0895,"lo2":-89.0444,"dy":0.0017,"dx":0.0017,"nx":28,"ny":28,"refTime":"2024-05-11T21:00:00:Z","depth":"2","parameterNumber":2,"parameterNumberName":"U-component_of_CURRENTS"},"data":[0,0,0,0,0,0,0,0,0,0,0,0,0,0,0,0,0,0,0,0,0,0,0,0,0,0,0,0,0,0,0,0,0,0,0,0,0,0,0,0,0,0,0,0,0,0,0,0,0,0,0,0,0,0,0,0,0,0,0.011,0.0109,0,0.0091,0.0091,0.0091,0.011,0.0111,0.0111,0.0112,0.0131,0.0131,0.0131,0,0,0,0,0,0,0,0,0,0,0,0,0,0.0152,0.0151,0.011,0.0109,0.0109,0.0091,0.0091,0.009,0.011,0.0111,0.0112,0.0112,0.0131,0.0131,0.0131,0,0,0,0,0,0,0,0,0,0,0,0,0,0.0134,0.0151,0.011,0.0116,0.0117,0.0091,0.0091,0.009,0.011,0.0111,0.0112,0.0113,0.0131,0.0131,0.0131,0.0107,0,0,0.013,0.013,0,0,0,0,0,0,0,0,0.0135,0.0132,0.0116,0.0116,0.0116,0.0104,0.0113,0.0098,0.0109,0.0113,0.0112,0.0113,0.0125,0.0125,0.0119,0.0108,0.0109,0.013,0.013,0.013,0.013,0,0,0,0,0,0,0,0.0136,0.0133,0.0102,0.0115,0.0116,0.0117,0.0116,0.011,0.0113,0.0112,0.0114,0.0111,0.0125,0.0119,0.0119,0.0109,0.013,0.013,0.013,0.013,0.0109,0.0109,0,0,0,0,0,0,0.0137,0.0134,0.0103,0.0102,0.0128,0.0115,0.0114,0.0107,0.0113,0.0114,0.011,0.0112,0.0119,0.012,0.012,0.0122,0.013,0.013,0.0129,0.0109,0.0109,0.0109,0,0,0,0,0,0,0.0138,0.0134,0.0104,0.0118,0.0114,0.0113,0.0105,0.0106,0.0108,0.011,0.0113,0.0112,0.012,0.0121,0.0119,0.0122,0.0129,0.0129,0.011,0.0109,0.0109,0.0108,0,0,0,0,0,0,0.0139,0.0134,0.0132,0.0118,0.0113,0.0094,0.0104,0.0105,0.0104,0.0106,0.0113,0.0116,0.0121,0.012,0.0119,0.0122,0.0129,0.011,0.011,0.0109,0.0108,0.0107,0.0106,0,0,0,0,0,0.0141,0.013,0.0132,0.0129,0.0109,0.0094,0.0092,0.0095,0.0103,0.0101,0.0105,0.0116,0.0115,0.0119,0.0118,0.0122,0.0111,0.011,0.0109,0.0109,0.0107,0.0106,0,0,0,0,0,0,0.0147,0.0131,0.0133,0.0119,0.0111,0.0097,0.0095,0.0095,0.0095,0.0101,0.0107,0.0109,0.011,0.011,0.0115,0.0112,0.0116,0.0115,0.0116,0.0114,0.0113,0.0136,0.0129,0,0,0,0,0,0.0147,0.0137,0.0123,0.0114,0.0109,0.0103,0.0098,0.0098,0.0094,0.0096,0.0099,0.0102,0.0102,0.0105,0.0104,0.0099,0.0132,0.0101,0.01,0.0099,0.0116,0.0155,0.0159,0.0106,0.0106,0.0106,0,0,0.0146,0.0137,0.0131,0.0115,0.011,0.0102,0.0103,0.0095,0.0094,0.0097,0.0098,0.0097,0.0099,0.0097,0.0098,0.0101,0.0133,0.0098,0.0097,0.0115,0.0154,0.016,0.0165,0.0105,0.0105,0.0105,0,0,0.014,0.0133,0.0124,0.0117,0.0108,0.0102,0.0101,0.0089,0.0093,0.0085,0.0091,0.0097,0.0087,0.0098,0.01,0.0091,0.0125,0.0083,0.0099,0.0136,0.0141,0.0147,0.0207,0.0218,0.0084,0.0084,0.0084,0,0.0144,0.013,0.012,0.0113,0.011,0.0104,0.0099,0.0095,0.0086,0.0092,0.0089,0.0093,0.0093,0.0106,0.0103,0.0093,0.0125,0.0104,0.0137,0.0143,0.0148,0.0209,0.0221,0.0084,0.0084,0.0084,0.0084,0,0.0132,0.0125,0.012,0.0111,0.0105,0.0098,0.0092,0.0091,0.0092,0.0093,0.0102,0.0101,0.0113,0.0105,0.0102,0.0133,0.0149,0.0131,0.0145,0.0154,0.0217,0.0229,0.0084,0.0084,0.0084,0.0084,0,0,0.0135,0.0116,0.0117,0.0118,0.0105,0.0101,0.0099,0.0101,0.0115,0.0107,0.013,0.0124,0.0134,0.0138,0.0136,0.0163,0.0227,0.0164,0.0166,0.0235,0.0331,0.0463,0.049,0.0213,0.0215,0.0216,0.0365,0,0.0135,0.0125,0.0113,0.0111,0.0108,0.0104,0.0107,0.011,0.0116,0.0136,0.0144,0.0162,0.0143,0.0155,0.0178,0.0215,0.0257,0.019,0.0304,0.0308,0.0433,0.0508,0.0445,0.0582,0.0377,0.0379,0.038,0,0.0131,0.0128,0.0124,0.0122,0.0122,0.0123,0.0139,0.0139,0.0161,0.0169,0.0188,0.0198,0.0241,0.0219,0.0306,0.0264,0.0305,0.0332,0.0338,0.0475,0.0465,0.0537,0.0613,0.0401,0.04,0.0398,0.0397,0,0.0148,0.0136,0.0138,0.0136,0.0132,0.014,0.0142,0.0156,0.0172,0.0203,0.0237,0.0262,0.0318,0.0344,0.0416,0.036,0.0532,0.0458,0.0621,0.063,0.0611,0.0617,0.0535,0.0535,0.0534,0.0534,0.0533,0,0.0154,0.0157,0.0149,0.0155,0.0169,0.0159,0.0183,0.0189,0.0217,0.0279,0.0267,0.0353,0.0356,0.045,0.0462,0.0625,0.058,0.0667,0.0692,0.0611,0.0616,0.0472,0.0463,0.0539,0.0538,0.0537,0.0536,0,0.0174,0.0165,0.0171,0.0174,0.0179,0.0192,0.021,0.0236,0.026,0.0347,0.0368,0.0451,0.0608,0.0638,0.0734,0.0743,0.0833,0.0895,0.0826,0.0843,0.0883,0.0872,0.1075,0.1082,0.1087,0.1091,0.1095,0,0.0181,0.0185,0.0194,0.021,0.0216,0.0232,0.0255,0.026,0.0303,0.0442,0.0508,0.0676,0.0841,0.1038,0.108,0.117,0.107,0.1142,0.1029,0.0943,0.0945,0.0925,0.0907,0.0988,0.0991,0.0993,0.0994,0,0.0204,0.0207,0.0217,0.0252,0.0277,0.0303,0.0344,0.0382,0.0442,0.0543,0.0749,0.0896,0.113,0.1242,0.1361,0.1366,0.1113,0.1196,0.1131,0.0883,0.0879,0.0875,0.0856,0.1013,0.1011,0.1009,0.1008,0.1008,0.0227,0.0243,0.0265,0.0302,0.0335,0.0399,0.0445,0.0517,0.0626,0.0806,0.0924,0.1136,0.1215,0.1424,0.1408,0.1358,0.1417,0.1286,0.1271,0.1255,0.1241,0.1249,0.145,0.145,0.1451,0.1452,0.1452,0,0.0262,0.0287,0.0319,0.0372,0.043,0.0439,0.0528,0.059,0.0759,0.0938,0.1125,0.1175,0.1322,0.1358,0.1353,0.1373,0.1229,0.1274,0.106,0.105,0.1039,0.1,0.1152,0.115,0.1148,0.1146,0,0,0.0285,0.0326,0.0346,0.0454,0.0505,0.0596,0.0662,0.0767,0.0884,0.1052,0.1172,0.1357,0.1424,0.1298,0.128,0.1224,0.1101,0.1169,0.1432,0.1178,0.1163,0.1099,0.1041,0,0,0,0,0]},{"header":{"parameterUnit":"m.s-1","parameterCategory":2,"la1":30.2991,"la2":30.254,"lo1":-89.0895,"lo2":-89.0444,"dy":0.0017,"dx":0.0017,"nx":28,"ny":28,"refTime":"2024-05-11T21:00:00:Z","depth":"2","parameterNumber":3,"parameterNumberName":"V-component_of_CURRENTS"},"data":[0,0,0,0,0,0,0,0,0,0,0,0,0,0,0,0,0,0,0,0,0,0,0,0,0,0,0,0,0,0,0,0,0,0,0,0,0,0,0,0,0,0,0,0,0,0,0,0,0,0,0,0,0,0,0,0,0,0,-0.0057,-0.0057,0,-0.0055,-0.0055,-0.0055,-0.0048,-0.0048,-0.0048,-0.0048,-0.003,-0.0029,-0.0029,0,0,0,0,0,0,0,0,0,0,0,0,0,-0.004,-0.004,-0.0057,-0.0057,-0.0057,-0.0055,-0.0055,-0.0055,-0.0048,-0.0048,-0.0048,-0.0048,-0.003,-0.0029,-0.0029,0,0,0,0,0,0,0,0,0,0,0,0,0,-0.0044,-0.004,-0.0057,-0.0054,-0.0053,-0.0055,-0.0055,-0.0055,-0.0049,-0.0048,-0.0048,-0.0048,-0.003,-0.0029,-0.0029,-0.0031,0,0,-0.0028,-0.0027,0,0,0,0,0,0,0,0,-0.0044,-0.0044,-0.0054,-0.0054,-0.0053,-0.0052,-0.0042,-0.0046,-0.0049,-0.0051,-0.0048,-0.0048,-0.0036,-0.0035,-0.0035,-0.003,-0.003,-0.0027,-0.0027,-0.0027,-0.0027,0,0,0,0,0,0,0,-0.0043,-0.0044,-0.0057,-0.0054,-0.0054,-0.0046,-0.0047,-0.0043,-0.0044,-0.005,-0.005,-0.0049,-0.0035,-0.0036,-0.0035,-0.0029,-0.0028,-0.0027,-0.0027,-0.0027,-0.0008,-0.0008,0,0,0,0,0,0,-0.0044,-0.0044,-0.0057,-0.0057,-0.0047,-0.0047,-0.0047,-0.0053,-0.0045,-0.0043,-0.0049,-0.0049,-0.0037,-0.0035,-0.0034,-0.0027,-0.0027,-0.0027,-0.0026,-0.0008,-0.0008,-0.0008,0,0,0,0,0,0,-0.0044,-0.0046,-0.0057,-0.005,-0.0051,-0.0048,-0.0053,-0.0053,-0.0052,-0.0044,-0.0043,-0.0049,-0.0037,-0.0035,-0.0028,-0.0027,-0.0026,-0.0026,-0.0008,-0.0008,-0.0008,-0.0019,0,0,0,0,0,0,-0.0044,-0.0046,-0.005,-0.005,-0.0051,-0.0059,-0.0054,-0.0053,-0.0052,-0.0052,-0.0044,-0.0042,-0.0036,-0.0028,-0.0027,-0.0026,-0.0026,-0.0009,-0.0008,-0.0008,-0.0019,-0.0019,-0.0019,0,0,0,0,0,-0.0043,-0.0051,-0.0051,-0.0052,-0.0058,-0.0059,-0.0059,-0.0056,-0.0053,-0.0054,-0.0046,-0.0042,-0.0025,-0.0028,-0.0027,-0.0025,-0.0009,-0.0008,-0.0008,-0.0019,-0.0019,-0.0019,0,0,0,0,0,0,-0.0046,-0.0051,-0.0051,-0.006,-0.0059,-0.0058,-0.0059,-0.0057,-0.0052,-0.0051,-0.0042,-0.0039,-0.0034,-0.0027,-0.003,-0.0018,-0.0015,-0.0015,-0.0024,-0.0024,-0.0024,-0.0026,-0.0025,0,0,0,0,0,-0.0049,-0.0057,-0.0057,-0.0065,-0.0065,-0.0062,-0.0062,-0.006,-0.0056,-0.0054,-0.0048,-0.0039,-0.0032,-0.0025,-0.0021,-0.0014,-0.0003,-0.0011,-0.0011,-0.0011,-0.0011,0.0009,0.0011,-0.0006,-0.0006,-0.0006,0,0,-0.0052,-0.0056,-0.006,-0.0066,-0.0065,-0.0066,-0.0062,-0.0063,-0.0062,-0.0053,-0.0049,-0.0043,-0.0031,-0.0024,-0.002,-0.0017,-0.0001,-0.0011,-0.0011,-0.001,0.001,0.0011,0.0013,-0.0006,-0.0006,-0.0006,0,0,-0.0059,-0.0065,-0.0072,-0.0072,-0.0073,-0.0071,-0.0071,-0.007,-0.0067,-0.0064,-0.0055,-0.0047,-0.0038,-0.0027,-0.0021,-0.0018,-0.0006,-0.0015,-0.0014,0.0005,0.0007,0.0008,0.0022,0.0025,-0.0011,-0.0011,-0.0011,0,-0.0061,-0.0071,-0.0073,-0.0077,-0.0077,-0.0073,-0.0075,-0.0073,-0.0069,-0.0063,-0.0064,-0.0046,-0.0039,-0.0024,-0.0023,-0.0019,-0.0006,-0.0015,0.0005,0.0006,0.0008,0.0022,0.0025,-0.0012,-0.0011,-0.0011,-0.0011,0,-0.0072,-0.0078,-0.0081,-0.0086,-0.0085,-0.0088,-0.0083,-0.0081,-0.0078,-0.0072,-0.0061,-0.0052,-0.0037,-0.0035,-0.0029,-0.0012,-0.0006,-0.0002,0.0004,0.0009,0.0024,0.0027,-0.0012,-0.0012,-0.0012,-0.0012,0,0,-0.008,-0.0088,-0.0089,-0.009,-0.009,-0.0091,-0.0087,-0.0081,-0.0073,-0.007,-0.0057,-0.005,-0.0041,-0.0033,-0.0022,-0.0007,0.0012,0.0001,0.0002,0.0013,0.0054,0.0057,0.0061,0.0022,0.0023,0.0023,0.0058,0,-0.0086,-0.0098,-0.0098,-0.0102,-0.0105,-0.0098,-0.0093,-0.0086,-0.0077,-0.0063,-0.0051,-0.0036,-0.004,-0.0028,-0.0016,0.0009,0.0021,0.0002,0.005,0.0051,0.0051,0.0065,0.002,0.0047,0.0062,0.0062,0.0063,0,-0.0096,-0.0101,-0.011,-0.0107,-0.0107,-0.0108,-0.0096,-0.0091,-0.0069,-0.0059,-0.0043,-0.0028,-0.0004,-0.001,0.0029,0.0019,0.0033,0.0047,0.0049,0.0058,0.0061,0.0046,0.0054,0.0069,0.0068,0.0068,0.0068,0,-0.0101,-0.0107,-0.0116,-0.0117,-0.0114,-0.0112,-0.0108,-0.0091,-0.0073,-0.0052,-0.0024,-0.001,0.0023,0.0031,0.006,0.0049,0.0104,0.0094,0.0106,0.0106,0.008,0.0077,0.0115,0.0115,0.0115,0.0115,0.0115,0,-0.0108,-0.0112,-0.012,-0.0123,-0.0125,-0.0119,-0.0112,-0.0101,-0.0069,-0.0015,-0.002,0.0042,0.0039,0.0075,0.0073,0.0107,0.0116,0.011,0.0118,0.0075,0.0071,0.0099,0.0097,0.0116,0.0116,0.0116,0.0116,0,-0.0111,-0.0119,-0.0126,-0.0128,-0.0129,-0.013,-0.0111,-0.0094,-0.0063,0.0013,0.0031,0.009,0.0148,0.0135,0.0168,0.0146,0.0159,0.0166,0.0112,0.0113,0.0141,0.0138,0.0179,0.0179,0.018,0.018,0.018,0,-0.0114,-0.0121,-0.0132,-0.0132,-0.0134,-0.0133,-0.0123,-0.01,-0.0052,0.0073,0.0131,0.0197,0.0295,0.0308,0.0238,0.0211,0.0211,0.0154,0.0119,0.0145,0.0149,0.0145,0.0142,0.0078,0.0078,0.0077,0.0077,0,-0.0115,-0.0123,-0.0127,-0.0126,-0.0124,-0.0111,-0.0075,-0.0024,0.0058,0.0164,0.0347,0.0436,0.0423,0.0392,0.0297,0.0257,0.0145,0.0145,0.0197,0.007,0.0054,0.0057,0.0056,0.0073,0.0073,0.0074,0.0074,0.0074,-0.0114,-0.0117,-0.0119,-0.0113,-0.0102,-0.0045,0.0019,0.0105,0.024,0.0462,0.0513,0.0676,0.0534,0.0452,0.0306,0.0133,0.0168,0.0111,0.0111,0.0112,0.0096,0.0081,0.0101,0.0102,0.0102,0.0103,0.0103,0,-0.0107,-0.0101,-0.0098,-0.007,-0.0029,-0.0027,0.009,0.0198,0.0423,0.0604,0.0787,0.0726,0.064,0.0481,0.0214,0.007,0.0023,0.0024,-0.0013,-0.0008,-0.0004,-0.0028,-0.0054,-0.0055,-0.0055,-0.0056,0,0,-0.0103,-0.0095,-0.0087,-0.0005,0.0038,0.0151,0.025,0.043,0.0592,0.0821,0.0941,0.0992,0.0766,0.0548,0.0291,0.0131,0.0106,0.0092,0.023,0.0219,0.0226,0.0053,0.0022,0,0,0,0,0]}],[{"header":{"parameterUnit":"m.s-1","parameterCategory":2,"la1":30.2991,"la2":30.254,"lo1":-89.0895,"lo2":-89.0444,"dy":0.0017,"dx":0.0017,"nx":28,"ny":28,"refTime":"2024-05-11T21:00:00:Z","depth":"4","parameterNumber":2,"parameterNumberName":"U-component_of_CURRENTS"},"data":[0,0,0,0,0,0,0,0,0,0,0,0,0,0,0,0,0,0,0,0,0,0,0,0,0,0,0,0,0,0,0,0,0,0,0,0,0,0,0,0,0,0,0,0,0,0,0,0,0,0,0,0,0,0,0,0,0,0,0.006,0.006,0,0.0052,0.0052,0.0052,0.0069,0.0069,0.007,0.007,0.0088,0.0088,0.0088,0,0,0,0,0,0,0,0,0,0,0,0,0,0.0076,0.0076,0.006,0.006,0.0059,0.0052,0.0052,0.0052,0.0069,0.0069,0.007,0.0071,0.0088,0.0088,0.0088,0,0,0,0,0,0,0,0,0,0,0,0,0,0.0069,0.0076,0.006,0.0067,0.0067,0.0052,0.0052,0.0052,0.0069,0.0069,0.007,0.0071,0.0088,0.0088,0.0088,0.0072,0,0,0.0088,0.0088,0,0,0,0,0,0,0,0,0.0069,0.0068,0.0066,0.0066,0.0067,0.0062,0.0065,0.006,0.0068,0.0068,0.007,0.0071,0.0081,0.0082,0.0078,0.0073,0.0073,0.0088,0.0088,0.0088,0.0088,0,0,0,0,0,0,0,0.007,0.0069,0.0057,0.0066,0.0066,0.0066,0.0066,0.0064,0.0071,0.0068,0.0069,0.0068,0.0082,0.0078,0.0079,0.0074,0.0088,0.0088,0.0088,0.0088,0.0076,0.0075,0,0,0,0,0,0,0.007,0.0069,0.0057,0.0056,0.007,0.0066,0.0066,0.0063,0.007,0.0072,0.0068,0.0069,0.0078,0.0079,0.008,0.008,0.0088,0.0088,0.0088,0.0076,0.0076,0.0075,0,0,0,0,0,0,0.0071,0.0069,0.0057,0.0063,0.0061,0.0065,0.0061,0.0062,0.0065,0.007,0.0072,0.007,0.0079,0.008,0.0079,0.008,0.0088,0.0088,0.0076,0.0076,0.0075,0.0069,0,0,0,0,0,0,0.0071,0.0069,0.007,0.0063,0.0061,0.0053,0.0061,0.0062,0.0063,0.0065,0.0072,0.0074,0.0079,0.0079,0.0079,0.008,0.0088,0.0077,0.0076,0.0075,0.0069,0.0068,0.0067,0,0,0,0,0,0.0072,0.0068,0.007,0.0069,0.0061,0.0053,0.0052,0.0057,0.0062,0.0062,0.0065,0.0075,0.0076,0.0078,0.0078,0.008,0.0077,0.0076,0.0076,0.007,0.0068,0.0067,0,0,0,0,0,0,0.0075,0.0069,0.0072,0.0067,0.0063,0.0056,0.0056,0.0057,0.0058,0.0062,0.0067,0.0069,0.007,0.0072,0.0075,0.0074,0.0079,0.0078,0.0074,0.0073,0.0072,0.0086,0.0088,0,0,0,0,0,0.0076,0.0074,0.0067,0.0065,0.0062,0.0059,0.0057,0.0058,0.0056,0.0058,0.0061,0.0064,0.0064,0.0067,0.0067,0.0064,0.0095,0.0066,0.0064,0.0064,0.0075,0.0113,0.0117,0.0073,0.0073,0.0073,0,0,0.0076,0.0073,0.0073,0.0066,0.0064,0.0058,0.006,0.0056,0.0054,0.0059,0.0059,0.0059,0.0062,0.006,0.0061,0.0065,0.0094,0.0063,0.0062,0.0074,0.0113,0.0117,0.0121,0.0073,0.0073,0.0073,0,0,0.0075,0.0074,0.0073,0.0068,0.0064,0.0059,0.0058,0.0051,0.0053,0.0046,0.0051,0.0056,0.0049,0.0058,0.006,0.0052,0.0085,0.0047,0.0056,0.0092,0.0097,0.0101,0.0157,0.0166,0.0049,0.0049,0.0049,0,0.0078,0.0074,0.0071,0.0066,0.0063,0.006,0.0054,0.0052,0.0046,0.0048,0.0047,0.005,0.0052,0.0061,0.0058,0.0052,0.0084,0.0061,0.0093,0.0097,0.0102,0.0158,0.0168,0.0048,0.0048,0.0048,0.0048,0,0.0075,0.0071,0.0069,0.0064,0.0059,0.0053,0.0047,0.0045,0.0043,0.0043,0.0049,0.0052,0.006,0.0055,0.0054,0.0081,0.0097,0.0086,0.01,0.0106,0.0164,0.0176,0.0048,0.0048,0.0048,0.0048,0,0,0.0082,0.0069,0.007,0.0066,0.0057,0.0051,0.0047,0.0044,0.0051,0.0047,0.0062,0.0058,0.0067,0.0071,0.0073,0.0101,0.0159,0.0107,0.0109,0.017,0.0259,0.027,0.0283,0.0153,0.0154,0.0155,0.0291,0,0.0082,0.0074,0.0066,0.0059,0.0053,0.0047,0.0044,0.0043,0.0046,0.006,0.0071,0.0086,0.0071,0.0083,0.0105,0.0147,0.0186,0.0124,0.0238,0.0242,0.0256,0.0295,0.016,0.03,0.0302,0.0304,0.0305,0,0.0083,0.0078,0.007,0.0058,0.0055,0.005,0.0052,0.0048,0.0065,0.0072,0.0089,0.0105,0.0147,0.0131,0.0218,0.018,0.0222,0.0253,0.0259,0.0281,0.0273,0.0289,0.0326,0.0324,0.0323,0.0321,0.032,0,0.0092,0.0079,0.0073,0.0069,0.0057,0.0055,0.0048,0.0054,0.0064,0.0092,0.0124,0.0151,0.0205,0.0238,0.0309,0.0267,0.0422,0.037,0.0423,0.0426,0.0377,0.0371,0.044,0.0439,0.0439,0.0439,0.0438,0,0.0095,0.0091,0.0078,0.0077,0.0073,0.0061,0.0064,0.0065,0.0088,0.0133,0.0139,0.0209,0.0237,0.0326,0.0347,0.0444,0.046,0.0448,0.0465,0.0372,0.0363,0.0387,0.0379,0.0444,0.0443,0.0442,0.0441,0,0.0105,0.0097,0.009,0.008,0.0077,0.0074,0.0072,0.0081,0.0108,0.0177,0.0199,0.0283,0.0404,0.0446,0.0543,0.0526,0.0591,0.0622,0.0563,0.057,0.0555,0.0545,0.0673,0.0675,0.0676,0.0677,0.0678,0,0.0109,0.0107,0.0096,0.0095,0.009,0.0083,0.0083,0.0089,0.0117,0.0244,0.0297,0.0432,0.0493,0.0649,0.0669,0.0725,0.0709,0.0727,0.0588,0.0578,0.0582,0.0569,0.0558,0.0681,0.0681,0.0681,0.0682,0,0.0116,0.0113,0.0109,0.0108,0.0107,0.0101,0.0116,0.0145,0.0197,0.0237,0.0401,0.048,0.0631,0.069,0.0756,0.0779,0.0691,0.0739,0.0734,0.0604,0.0588,0.0587,0.0574,0.0686,0.0686,0.0685,0.0685,0,0.0122,0.012,0.0119,0.0117,0.0116,0.0131,0.0131,0.0194,0.0228,0.0366,0.0443,0.0583,0.0669,0.0728,0.0791,0.0814,0.0769,0.0703,0.0699,0.0694,0.0631,0.0609,0.0752,0,0,0,0,0,0.0126,0.0129,0.0128,0.0123,0.0123,0.0131,0.0162,0.0172,0.0249,0.0363,0.0395,0.0535,0.0653,0.0716,0.0741,0.0771,0.0751,0.0793,0.0666,0.0712,0.0707,0.0626,0,0,0,0,0,0,0.013,0.0134,0.0131,0.0132,0.0138,0.0143,0.017,0.0221,0.0278,0.037,0.0439,0.05,0.0614,0.0648,0.0736,0.075,0.0656,0.086,0.0858,0.0715,0.071,0.0706,0.0622,0,0,0,0,0]},{"header":{"parameterUnit":"m.s-1","parameterCategory":2,"la1":30.2991,"la2":30.254,"lo1":-89.0895,"lo2":-89.0444,"dy":0.0017,"dx":0.0017,"nx":28,"ny":28,"refTime":"2024-05-11T21:00:00:Z","depth":"4","parameterNumber":3,"parameterNumberName":"V-component_of_CURRENTS"},"data":[0,0,0,0,0,0,0,0,0,0,0,0,0,0,0,0,0,0,0,0,0,0,0,0,0,0,0,0,0,0,0,0,0,0,0,0,0,0,0,0,0,0,0,0,0,0,0,0,0,0,0,0,0,0,0,0,0,0,-0.0168,-0.0168,0,-0.0168,-0.0168,-0.0168,-0.0154,-0.0153,-0.0153,-0.0153,-0.0134,-0.0134,-0.0134,0,0,0,0,0,0,0,0,0,0,0,0,0,-0.0144,-0.0145,-0.0168,-0.0169,-0.0169,-0.0168,-0.0168,-0.0168,-0.0154,-0.0153,-0.0153,-0.0153,-0.0134,-0.0134,-0.0134,0,0,0,0,0,0,0,0,0,0,0,0,0,-0.015,-0.0145,-0.0168,-0.0162,-0.0161,-0.0168,-0.0168,-0.0168,-0.0154,-0.0153,-0.0153,-0.0152,-0.0134,-0.0134,-0.0134,-0.0142,0,0,-0.0133,-0.0133,0,0,0,0,0,0,0,0,-0.015,-0.0151,-0.0163,-0.0162,-0.0162,-0.0161,-0.0153,-0.0158,-0.0154,-0.0156,-0.0153,-0.0152,-0.0142,-0.0141,-0.0142,-0.0141,-0.014,-0.0133,-0.0133,-0.0133,-0.0133,0,0,0,0,0,0,0,-0.0149,-0.0151,-0.0168,-0.0163,-0.0162,-0.0154,-0.0155,-0.0154,-0.0151,-0.0156,-0.0155,-0.0156,-0.0141,-0.0142,-0.0141,-0.014,-0.0133,-0.0133,-0.0132,-0.0132,-0.0117,-0.0116,0,0,0,0,0,0,-0.0152,-0.0151,-0.0168,-0.0168,-0.0155,-0.0155,-0.0156,-0.0161,-0.0152,-0.015,-0.0156,-0.0155,-0.0143,-0.0142,-0.014,-0.0129,-0.0133,-0.0132,-0.0132,-0.0117,-0.0117,-0.0116,0,0,0,0,0,0,-0.0151,-0.0153,-0.0168,-0.0159,-0.016,-0.0156,-0.0163,-0.0161,-0.0161,-0.0152,-0.015,-0.0157,-0.0142,-0.0141,-0.0135,-0.0128,-0.0132,-0.0132,-0.0117,-0.0117,-0.0117,-0.0118,0,0,0,0,0,0,-0.0151,-0.0153,-0.0159,-0.016,-0.0161,-0.0173,-0.0163,-0.0162,-0.0163,-0.0161,-0.0152,-0.015,-0.0142,-0.0135,-0.0135,-0.0128,-0.0132,-0.0118,-0.0117,-0.0117,-0.0119,-0.0118,-0.0118,0,0,0,0,0,-0.015,-0.0163,-0.0159,-0.0161,-0.0169,-0.0174,-0.0174,-0.0168,-0.0163,-0.0166,-0.0155,-0.015,-0.0131,-0.0135,-0.0134,-0.0128,-0.0118,-0.0117,-0.0117,-0.0119,-0.0118,-0.0118,0,0,0,0,0,0,-0.0157,-0.0162,-0.0159,-0.0173,-0.0172,-0.0171,-0.0176,-0.0171,-0.0166,-0.0164,-0.0152,-0.0149,-0.014,-0.0135,-0.014,-0.0121,-0.0122,-0.0122,-0.0124,-0.0123,-0.0123,-0.012,-0.0132,0,0,0,0,0,-0.0161,-0.0171,-0.0171,-0.0182,-0.0183,-0.0179,-0.0181,-0.0177,-0.0172,-0.017,-0.0162,-0.015,-0.0138,-0.0132,-0.0125,-0.012,-0.011,-0.0113,-0.0112,-0.0112,-0.0108,-0.0085,-0.0082,-0.0115,-0.0115,-0.0115,0,0,-0.0166,-0.0171,-0.0176,-0.0184,-0.0183,-0.0185,-0.0179,-0.0184,-0.0179,-0.0169,-0.0162,-0.0152,-0.0137,-0.0126,-0.0122,-0.0121,-0.01,-0.0111,-0.0111,-0.0108,-0.0084,-0.008,-0.0077,-0.0114,-0.0114,-0.0114,0,0,-0.0182,-0.0186,-0.0198,-0.0198,-0.02,-0.0195,-0.0196,-0.0194,-0.0187,-0.0182,-0.0167,-0.0152,-0.0144,-0.0124,-0.0113,-0.0107,-0.01,-0.0107,-0.01,-0.0077,-0.0074,-0.0071,-0.0065,-0.0061,-0.0104,-0.0104,-0.0104,0,-0.0188,-0.02,-0.0202,-0.0209,-0.0206,-0.0199,-0.0201,-0.0195,-0.0189,-0.0177,-0.0181,-0.0149,-0.0139,-0.0109,-0.0105,-0.0105,-0.0098,-0.0104,-0.0076,-0.0073,-0.007,-0.0064,-0.006,-0.0104,-0.0104,-0.0104,-0.0104,0,-0.021,-0.0215,-0.0222,-0.0224,-0.0222,-0.0225,-0.0213,-0.0205,-0.0196,-0.0183,-0.0159,-0.0145,-0.0121,-0.0116,-0.011,-0.0081,-0.0086,-0.0081,-0.0078,-0.0067,-0.0061,-0.0057,-0.0104,-0.0104,-0.0104,-0.0104,0,0,-0.0234,-0.0237,-0.0238,-0.0232,-0.0228,-0.0226,-0.0214,-0.0195,-0.0174,-0.0169,-0.0141,-0.0122,-0.011,-0.0098,-0.0085,-0.0065,-0.0044,-0.0066,-0.0065,-0.0061,-0.0005,-0.004,-0.0039,-0.0035,-0.0034,-0.0033,-0.0013,0,-0.0248,-0.026,-0.0256,-0.0252,-0.025,-0.0232,-0.0215,-0.0194,-0.0174,-0.0146,-0.0123,-0.0096,-0.0104,-0.0088,-0.0071,-0.0045,-0.0032,-0.005,-0.0016,-0.0015,-0.0047,-0.0035,-0.003,-0.001,-0.0009,-0.0009,-0.0008,0,-0.0271,-0.027,-0.0275,-0.0248,-0.0245,-0.0241,-0.0202,-0.0187,-0.0144,-0.0125,-0.0098,-0.0078,-0.0046,-0.0055,-0.0015,-0.0028,-0.002,-0.0006,-0.0005,-0.0032,-0.0041,-0.0021,-0.0001,-0.0001,-0.0002,-0.0002,-0.0003,0,-0.0282,-0.0279,-0.028,-0.0276,-0.025,-0.0241,-0.0224,-0.0183,-0.0151,-0.0111,-0.0079,-0.0051,-0.0022,-0.0009,0.0009,0.0001,0.0049,0.0044,0.0018,0.0015,0.0041,0.0038,0.0069,0.0069,0.0069,0.0069,0.0069,0,-0.0294,-0.0292,-0.0286,-0.0283,-0.0266,-0.0248,-0.0217,-0.0191,-0.014,-0.0088,-0.0071,-0.0024,-0.0007,0.0022,0.0022,0.0029,0.0058,0.0021,0.0022,0.0038,0.0034,0.0043,0.004,0.007,0.007,0.007,0.0069,0,-0.0303,-0.0304,-0.0298,-0.0279,-0.0274,-0.0261,-0.0216,-0.0184,-0.0138,-0.007,-0.0053,0.0005,0.0032,0.0038,0.0068,0.0053,0.006,0.0054,0.0063,0.0064,0.0005,0.0002,0.0027,0.0026,0.0025,0.0025,0.0024,0,-0.0306,-0.0309,-0.03,-0.0294,-0.0288,-0.0266,-0.0242,-0.0194,-0.0147,-0.0044,-0.0004,0.0039,0.0067,0.0089,0.0074,0.0054,0.0048,0.0047,0.0028,0.0004,0.0003,0.0001,-0.0001,0.0023,0.0023,0.0022,0.0022,0,-0.0303,-0.0309,-0.0301,-0.0292,-0.0278,-0.0249,-0.0208,-0.0167,-0.0087,-0.005,0.0057,0.0077,0.0102,0.0094,0.0072,0.006,0.0046,0.0039,0.004,0.0022,-0.0001,-0.0001,-0.0003,0.0019,0.002,0.002,0.002,0,-0.03,-0.0295,-0.0291,-0.0277,-0.0262,-0.0221,-0.0203,-0.0129,-0.0075,0.0044,0.0073,0.0111,0.0135,0.0097,0.0084,0.0055,0.0041,0.0037,0.0038,0.0041,0.0027,-0.0,0.0025,0,0,0,0,0,-0.0291,-0.0281,-0.0271,-0.0245,-0.023,-0.0218,-0.0166,-0.0138,-0.0062,0.0017,0.0056,0.0082,0.0083,0.0084,0.0049,0.0033,0.0008,-0.0013,-0.0003,0.0004,0.0007,-0.0017,0,0,0,0,0,0,-0.0282,-0.0276,-0.0266,-0.0222,-0.02,-0.0169,-0.0138,-0.0091,-0.0039,0.003,0.0028,0.0063,0.0046,0.0102,0.0047,0.0038,0.0037,-0.001,-0.0011,0.0002,0.0005,0.0007,-0.0016,0,0,0,0,0]}]]